Location: Cahas Mountain Overlook
(37.0833°N, 80.1000°W)
Time: 09:58:37
(UTC-04:00)

Vanguard 1 Rocket - Pass Details

Date: 25 January 2022
Orbit: 651 x 4224 km, 34.3° (Epoch: 21 May)

Event Time Altitude Azimuth Distance (km) Brightness Sun altitude
Rises 19:57:57 0° 278° (W) 5,375 12.5 -27.9°
Reaches altitude 10° 20:04:51 10° 252° (WSW) 3,486 11.2 -29.3°
Maximum altitude 20:07:35 12° 232° (SW) 3,001 10.6 -29.8°
Drops below altitude 10° 20:09:55 10° 212° (SSW) 2,858 10.3 -30.3°
Sets 20:14:06 0° 179° (S) 3,354 10.3 -31.1°
